[[{"header":{"parameterUnit":"m.s-1","parameterCategory":1,"la1":30.2991,"la2":30.254,"lo1":-89.0895,"lo2":-89.0444,"dy":0.0017,"dx":0.0017,"nx":28,"ny":28,"refTime":"2024-07-10T09:00:00:Z","depth":0,"parameterNumber":2,"parameterNumberName":"U-component_of_WINDS"},"data":[0,0,0,0,0,0,0,0,0,0,0,0,0,0,0,0,0,0,0,0,0,0,0,0,0,0,0,0,0,0,0,0,0,0,0,0,0,0,0,0,0,0,0,0,0,0,0,0,0,0,0,0,0,0,0,0,0,0,1.368,1.3682,0,1.3834,1.3836,1.3838,1.3881,1.388,1.3879,1.3878,1.4037,1.4042,1.4047,0,0,0,0,0,0,0,0,0,0,0,0,0,1.3421,1.3426,1.368,1.3682,1.3684,1.3834,1.3836,1.3838,1.3881,1.388,1.3879,1.3878,1.4035,1.4041,1.4047,0,0,0,0,0,0,0,0,0,0,0,0,0,1.355,1.3427,1.368,1.3723,1.3729,1.3834,1.3836,1.3839,1.3881,1.388,1.3879,1.3877,1.4033,1.404,1.4048,1.4121,0,0,1.4071,1.4074,0,0,0,0,0,0,0,0,1.3543,1.356,1.3715,1.372,1.3727,1.3837,1.3803,1.3933,1.3882,1.3823,1.3878,1.3877,1.3971,1.3984,1.4016,1.4128,1.4135,1.4072,1.4076,1.4079,1.4082,0,0,0,0,0,0,0,1.3534,1.3553,1.3741,1.3717,1.3724,1.3735,1.3752,1.3828,1.3903,1.3828,1.3832,1.3849,1.3974,1.4008,1.402,1.4137,1.4071,1.4078,1.4083,1.4086,1.4315,1.4317,0,0,0,0,0,0,1.3517,1.3546,1.3736,1.3746,1.363,1.374,1.3759,1.3803,1.3902,1.3916,1.385,1.3851,1.3996,1.4011,1.4026,1.4116,1.4079,1.4086,1.4091,1.4314,1.4316,1.4317,0,0,0,0,0,0,1.3512,1.3534,1.373,1.3647,1.3672,1.3746,1.3795,1.3807,1.3841,1.3919,1.3932,1.3871,1.3996,1.4015,1.4096,1.4122,1.409,1.4097,1.4312,1.4314,1.4316,1.4298,0,0,0,0,0,0,1.3504,1.3532,1.3561,1.3647,1.3677,1.3798,1.3797,1.3811,1.3854,1.3856,1.3942,1.3955,1.3996,1.4085,1.4104,1.4132,1.4103,1.431,1.4313,1.4316,1.4297,1.43,1.4302,0,0,0,0,0,1.3495,1.355,1.3562,1.3585,1.3714,1.38,1.3817,1.3863,1.3856,1.3885,1.3935,1.3953,1.4116,1.4093,1.4115,1.4145,1.4308,1.4312,1.4315,1.4296,1.4299,1.4302,0,0,0,0,0,0,1.3465,1.3562,1.3576,1.3661,1.3722,1.3807,1.3845,1.3865,1.3929,1.3928,1.3983,1.4002,1.4079,1.4121,1.4093,1.422,1.4213,1.4221,1.419,1.4194,1.4197,1.4185,1.4109,0,0,0,0,0,1.3468,1.353,1.3611,1.3678,1.3708,1.3771,1.381,1.384,1.3905,1.3931,1.3987,1.4049,1.4115,1.4157,1.4222,1.4303,1.4322,1.4335,1.4337,1.4339,1.4345,1.439,1.4396,1.4329,1.4329,1.4329,0,0,1.3476,1.3536,1.3572,1.3674,1.3724,1.3786,1.3792,1.3858,1.3904,1.3941,1.4021,1.4064,1.4137,1.4218,1.4257,1.4255,1.4368,1.4344,1.4345,1.435,1.4394,1.4401,1.4406,1.4331,1.4331,1.433,0,0,1.3521,1.3573,1.3634,1.3684,1.376,1.3802,1.3816,1.3898,1.3928,1.4009,1.4037,1.4093,1.4205,1.4255,1.4295,1.4357,1.4376,1.4377,1.4391,1.4433,1.4439,1.4444,1.4465,1.4472,1.4383,1.4383,1.4383,0,1.3521,1.3615,1.3663,1.3727,1.377,1.3805,1.3866,1.3913,1.4006,1.4035,1.4032,1.4172,1.4224,1.4316,1.4331,1.4363,1.438,1.4367,1.4434,1.444,1.4445,1.4465,1.4473,1.4383,1.4383,1.4383,1.4383,0,1.361,1.3675,1.3715,1.3803,1.3851,1.3914,1.397,1.4012,1.4037,1.4079,1.416,1.4223,1.43,1.4325,1.4351,1.4421,1.4417,1.4423,1.4417,1.445,1.447,1.4479,1.4382,1.4382,1.4382,1.4382,0,0,1.3642,1.3754,1.3768,1.3808,1.3894,1.3945,1.4008,1.4083,1.4118,1.4181,1.4234,1.4327,1.4333,1.4379,1.441,1.4448,1.4491,1.4449,1.4452,1.4454,1.4571,1.4565,1.4573,1.4504,1.4506,1.4507,1.4564,0,1.3697,1.3811,1.3855,1.3948,1.4008,1.4041,1.4096,1.4154,1.4194,1.425,1.4295,1.4359,1.4363,1.439,1.4429,1.4477,1.4515,1.4474,1.4554,1.4556,1.4533,1.4584,1.4579,1.463,1.4572,1.4574,1.4575,0,1.3777,1.3839,1.3938,1.4015,1.4041,1.409,1.4161,1.4215,1.4281,1.4307,1.4357,1.4386,1.4453,1.4442,1.4534,1.4505,1.454,1.4569,1.4572,1.458,1.4567,1.4593,1.4647,1.4654,1.4588,1.4587,1.4586,0,1.3788,1.3897,1.397,1.4003,1.4095,1.4128,1.4167,1.4232,1.4274,1.4336,1.4364,1.4433,1.4471,1.4524,1.457,1.4558,1.4657,1.4651,1.468,1.4679,1.47,1.4698,1.4759,1.4723,1.4723,1.4723,1.4723,0,1.3845,1.3904,1.3976,1.4021,1.4087,1.4136,1.42,1.4242,1.4299,1.4352,1.4386,1.4434,1.4493,1.4549,1.4586,1.4656,1.4673,1.4696,1.4705,1.4693,1.4689,1.4716,1.4713,1.4725,1.4725,1.4724,1.4724,0,1.3869,1.392,1.4001,1.4081,1.4102,1.4147,1.4215,1.4259,1.43,1.4367,1.4385,1.4449,1.4517,1.4569,1.4657,1.4682,1.4755,1.4765,1.4733,1.4737,1.4763,1.476,1.4844,1.4856,1.4812,1.4813,1.4813,0,1.3902,1.3947,1.4031,1.4068,1.4108,1.4168,1.421,1.426,1.4303,1.438,1.4415,1.4485,1.4543,1.465,1.4704,1.4771,1.4783,1.4807,1.4793,1.4779,1.4782,1.4778,1.4782,1.4809,1.4809,1.4809,1.481,0,1.3953,1.3976,1.4035,1.4103,1.4152,1.4209,1.4265,1.4294,1.4354,1.44,1.4469,1.4514,1.4603,1.4672,1.4745,1.4785,1.4807,1.4813,1.4824,1.4811,1.479,1.4801,1.4737,1.4811,1.4811,1.4811,1.4811,1.4811,1.3982,1.4024,1.4088,1.4153,1.4201,1.4253,1.4297,1.4343,1.4402,1.4478,1.4504,1.4575,1.4638,1.4737,1.4779,1.4835,1.4835,1.485,1.4854,1.4857,1.4855,1.4781,1.4848,1.4848,1.4848,1.4848,1.4848,0,1.4034,1.4077,1.4136,1.4214,1.4265,1.428,1.4343,1.4384,1.4446,1.4504,1.456,1.4639,1.4705,1.4764,1.4833,1.4866,1.4878,1.4882,1.488,1.4889,1.4851,1.4835,1.4872,1.4872,1.4872,1.4872,1.4872,1.4872,1.4068,1.4138,1.4168,1.4262,1.4305,1.4374,1.4408,1.4456,1.4502,1.4588,1.4642,1.468,1.4738,1.4811,1.4872,1.4888,1.4911,1.4913,1.4931,1.4895,1.4892,1.4889,1.4874,1.4918,1.4918,1.4964,1.4964,1.4965]},{"header":{"parameterUnit":"m.s-1","parameterCategory":1,"la1":30.2991,"la2":30.254,"lo1":-89.0895,"lo2":-89.0444,"dy":0.0017,"dx":0.0017,"nx":28,"ny":28,"refTime":"2024-07-10T09:00:00:Z","depth":0,"parameterNumber":3,"parameterNumberName":"V-component_of_WINDS"},"data":[0,0,0,0,0,0,0,0,0,0,0,0,0,0,0,0,0,0,0,0,0,0,0,0,0,0,0,0,0,0,0,0,0,0,0,0,0,0,0,0,0,0,0,0,0,0,0,0,0,0,0,0,0,0,0,0,0,0,3.0775,3.0774,0,3.0719,3.0718,3.0717,3.064,3.0639,3.0638,3.0636,3.0579,3.0579,3.0578,0,0,0,0,0,0,0,0,0,0,0,0,0,3.0815,3.0815,3.0775,3.0774,3.0773,3.0719,3.0718,3.0717,3.064,3.0639,3.0637,3.0636,3.0579,3.0579,3.0578,0,0,0,0,0,0,0,0,0,0,0,0,0,3.0782,3.0814,3.0775,3.0729,3.0724,3.0719,3.0718,3.0717,3.0641,3.0639,3.0637,3.0635,3.0579,3.0579,3.0578,3.0614,0,0,3.0577,3.0577,0,0,0,0,0,0,0,0,3.0784,3.0781,3.0736,3.0732,3.0726,3.0684,3.0711,3.0683,3.0641,3.0672,3.0636,3.0634,3.0616,3.0612,3.0606,3.0612,3.0609,3.0577,3.0577,3.0576,3.0576,0,0,0,0,0,0,0,3.0786,3.0783,3.0752,3.0736,3.073,3.071,3.0703,3.0705,3.0656,3.0669,3.0664,3.0658,3.0613,3.0607,3.0604,3.0608,3.0577,3.0576,3.0576,3.0576,3.0638,3.064,0,0,0,0,0,0,3.0796,3.0785,3.0754,3.0751,3.0751,3.0711,3.0703,3.07,3.0655,3.0647,3.066,3.0655,3.0608,3.0605,3.0602,3.0639,3.0576,3.0576,3.0576,3.0636,3.0638,3.0641,0,0,0,0,0,0,3.0797,3.0794,3.0757,3.0766,3.076,3.0712,3.0709,3.07,3.0693,3.0648,3.0639,3.0663,3.0607,3.0602,3.0611,3.0636,3.0576,3.0575,3.0634,3.0637,3.064,3.0715,0,0,0,0,0,0,3.0798,3.0794,3.0808,3.0767,3.076,3.0768,3.0711,3.07,3.0693,3.0686,3.0648,3.064,3.0605,3.0612,3.0611,3.0634,3.0575,3.0631,3.0635,3.0639,3.071,3.072,3.0729,0,0,0,0,0,3.08,3.0832,3.0809,3.0806,3.0776,3.0769,3.0765,3.0723,3.0695,3.0708,3.0678,3.0641,3.0634,3.0614,3.0611,3.0635,3.063,3.0634,3.0638,3.0706,3.0718,3.0729,0,0,0,0,0,0,3.0878,3.0826,3.08,3.082,3.08,3.0756,3.0771,3.0738,3.0726,3.0719,3.0668,3.066,3.0675,3.0656,3.0635,3.0666,3.0626,3.063,3.0678,3.0689,3.0699,3.0702,3.0575,0,0,0,0,0,3.0897,3.0896,3.0851,3.0873,3.0864,3.082,3.0815,3.0785,3.0762,3.0753,3.0724,3.0703,3.0695,3.0691,3.0682,3.0707,3.0697,3.0722,3.0731,3.0739,3.0743,3.0753,3.0763,3.0655,3.0655,3.0655,0,0,3.0937,3.0909,3.0912,3.0888,3.0868,3.0868,3.0813,3.0815,3.0814,3.0753,3.0759,3.0737,3.071,3.0727,3.0732,3.0711,3.077,3.0745,3.0751,3.0751,3.0758,3.0768,3.0777,3.0658,3.0657,3.0657,0,0,3.101,3.0989,3.1004,3.0985,3.0956,3.0926,3.093,3.0892,3.0874,3.088,3.0833,3.0831,3.082,3.0801,3.0791,3.0855,3.082,3.0853,3.0902,3.0912,3.092,3.0927,3.0948,3.0957,3.0858,3.0858,3.0858,0,3.1063,3.1061,3.1016,3.1021,3.1011,3.0955,3.0969,3.0953,3.0923,3.0917,3.0894,3.0877,3.0855,3.0865,3.0881,3.0875,3.0876,3.0857,3.0923,3.0929,3.0935,3.0955,3.0963,3.0862,3.0861,3.0861,3.0861,0,3.1127,3.1127,3.1142,3.1113,3.1106,3.1115,3.1071,3.1068,3.1038,3.101,3.1015,3.0987,3.097,3.097,3.0941,3.0976,3.0963,3.0932,3.089,3.0951,3.0968,3.0975,3.0868,3.0866,3.0865,3.0864,0,0,3.1248,3.1193,3.1199,3.1185,3.1148,3.1146,3.1153,3.1136,3.1134,3.1114,3.1117,3.1108,3.1078,3.1066,3.1035,3.1044,3.1094,3.1011,3.1009,3.1026,3.1127,3.115,3.116,3.107,3.1072,3.1073,3.1129,0,3.1312,3.132,3.1279,3.1298,3.1295,3.1241,3.1247,3.1224,3.1198,3.1192,3.1163,3.1156,3.1119,3.1111,3.1117,3.1086,3.1113,3.1082,3.1071,3.1072,3.1079,3.1169,3.1194,3.1249,3.1136,3.1137,3.1138,0,3.1389,3.1373,3.1391,3.1351,3.1349,3.1355,3.1334,3.133,3.1302,3.1283,3.1268,3.1232,3.1234,3.1195,3.1196,3.1176,3.1169,3.1153,3.1154,3.1151,3.1108,3.1167,3.1265,3.1273,3.1148,3.1148,3.1147,0,3.1473,3.1456,3.1464,3.1453,3.1408,3.1413,3.1394,3.1365,3.1357,3.1339,3.1333,3.1316,3.1307,3.1294,3.1253,3.1229,3.1259,3.1217,3.1241,3.1242,3.1249,3.1249,3.1347,3.1247,3.1247,3.1247,3.1247,0,3.1548,3.1561,3.1501,3.1506,3.1518,3.147,3.1483,3.1459,3.1434,3.1432,3.1385,3.1384,3.1331,3.1324,3.1292,3.1297,3.1293,3.1276,3.1267,3.128,3.1282,3.1274,3.1268,3.1249,3.1249,3.1248,3.1248,0,3.1644,3.1604,3.1609,3.1565,3.1555,3.1565,3.1527,3.153,3.15,3.1499,3.1496,3.1449,3.1438,3.1396,3.1376,3.1354,3.1369,3.1352,3.1378,3.1372,3.1398,3.1396,3.1493,3.1502,3.1399,3.14,3.1401,0,3.1694,3.1702,3.166,3.1655,3.1638,3.1632,3.1623,3.1576,3.1568,3.1537,3.1543,3.1528,3.1514,3.1499,3.1462,3.1446,3.1428,3.1463,3.1425,3.1436,3.1426,3.1426,3.1425,3.1471,3.1472,3.1473,3.1474,0,3.1787,3.1767,3.1756,3.1737,3.1728,3.1711,3.1692,3.1691,3.1638,3.1632,3.162,3.1609,3.1587,3.1572,3.1549,3.1529,3.1492,3.1487,3.1491,3.1503,3.1517,3.1508,3.1399,3.1484,3.1483,3.1483,3.1482,3.1482,3.186,3.1864,3.1834,3.1823,3.1803,3.1786,3.1785,3.1755,3.1745,3.1723,3.1696,3.1687,3.1658,3.1623,3.1605,3.1596,3.1577,3.1584,3.1585,3.1587,3.1592,3.1519,3.1592,3.1592,3.1592,3.1591,3.1591,0,3.1949,3.1927,3.1917,3.1891,3.1882,3.1849,3.1825,3.1819,3.1812,3.1788,3.1774,3.176,3.1745,3.1707,3.1688,3.1689,3.1671,3.1685,3.1684,3.1679,3.1612,3.161,3.1699,3.1699,3.1699,3.1699,3.1699,3.1699,3.1994,3.1999,3.1975,3.1969,3.1946,3.1937,3.1926,3.1909,3.189,3.1875,3.1863,3.1838,3.1808,3.1786,3.177,3.1759,3.1754,3.1773,3.1757,3.1695,3.1684,3.1674,3.1671,3.1773,3.1773,3.1824,3.1824,3.1825]}]]